User: anonymous   Login
Location: NJAA Observatory
(40.6819°N, 74.8979°W)
Time: 18:50:11
(UTC-05:00)
Language:

Cosmos 1633 - Orbit

View from above orbital plane
View from above orbital plane
View from above satellite
View from above satellite

Ground track
Ground track

The orbit data is extracted from the following two-line orbital elements,

1 15592U 85020A   16038.67696860  .00004375  00000-0  16780-3 0  9997
2 15592  82.5382  95.0054 0016247 123.9546 236.3239 15.26092943688657
Epoch (UTC): 07 February 2016 16:14:50
Eccentricity: 0.0016247
inclination: 82.5382°
perigee height: 476 km
apogee height: 498 km
right ascension of ascending node: 95.0054°
argument of perigee: 123.9546°
revolutions per day: 15.26092943
mean anomaly at epoch: 236.3239°
orbit number at epoch: 68865

The dashed part of the orbit path shows where the satellite is in the earth's shadow,  

DLR